EUTELSAT 7A

Last updated on Thu Jul 03 2025 00:02:44 GMT+0000 (Coordinated Universal Time)

1 28187U 04008A 25183.39733881 .00000108 00000+0 00000+0 0 9996 2 28187 4.9401 76.2100 0001493 23.4776 184.7911 1.00272610 77844
UTC large
Height (km)
Speed (km/s)
/
Latitude / Longitude
Inclination (degrees)
Orbital Period (minutes)
Azimuth
Elevation
Range (km)
Doppler Factor

Next 0 passes for location: London (51.5072 / 0.1276)

Sorry there are no passes over London.